Weather History for KELP - March, 2012

Change the Weather History Date:

Friday, March 9, 2012

  Actual Average Record
Temperature  
Mean Temperature 40 °F 55 °F  
Max Temperature 47 °F 69 °F 85 °F (1989)
Min Temperature 32 °F 42 °F 21 °F (1891)
Degree Days  
Heating Degree Days 25 10  
Month to date heating degree days 110 99  
Since 1 July heating degree days 2133 2202  
Cooling Degree Days 0 0  
Month to date cooling degree days 1 0  
Year to date cooling degree days 1 0  
Moisture  
Dew Point 22 °F    
Average Humidity 48    
Maximum Humidity 59    
Minimum Humidity 37    
Precipitation  
Precipitation 0.00 in 0.01 in 0.32 in (1901)
Month to date precipitation 0.00 0.09  
Year to date precipitation 0.68 0.95  
Snow  
Snow 0.00 in - - ()
Month to date snowfall 0.0  
Since 1 July snowfall 3.2  
Snow Depth 0.00 in    
Sea Level Pressure  
Sea Level Pressure 30.31 in    
Wind  
Wind Speed 12 mph (ENE)    
Max Wind Speed 22 mph    
Max Gust Speed 26 mph    
Visibility 10 miles    
Events      
T = Trace of Precipitation, MM = Missing Value Source: NWS Daily Summary

Daily Weather History Graph

Daily Weather History Graph

Search for Another Location

Airport or City:

Trip Planner

Search our weather history database for the weather conditions in past years. The results will help you decide how hot, cold, wet, or windy it might be!

Date:

Astronomy

Mar. 09, 2012 Rise Set
Actual Time 6:22 AM MST 6:09 PM MST
Civil Twilight 5:58 AM MST 6:34 PM MST
Nautical Twilight 5:29 AM MST 7:02 PM MST
Astronomical Twilight 5:01 AM MST 7:30 PM MST
Moon 8:00 PM MST (3/9) 6:51 AM MST (3/9)
Length of Visible Light 12h 36m
Length of Day
11h 47m
Full, 97% of the Moon is Illuminated
Mar 9
Full
Mar 14
Last Quarter
Mar 22
New
Mar 30
First Quarter
Apr 6
Full

Hourly Weather History & Observations

Time (MST) Temp. Windchill Dew Point Humidity Pressure Visibility Wind Dir Wind Speed Gust Speed Precip Events Conditions
12:51 AM 37.0 °F 31.0 °F 21.0 °F 52% 30.38 in 10.0 mi North 8.1 mph - N/A   Clear
1:51 AM 36.0 °F 29.6 °F 21.0 °F 55% 30.38 in 10.0 mi North 8.1 mph - N/A   Clear
2:51 AM 35.1 °F 28.6 °F 19.9 °F 54% 30.36 in 10.0 mi North 8.1 mph - N/A   Clear
3:51 AM 34.0 °F 28.8 °F 19.9 °F 56% 30.36 in 10.0 mi NE 5.8 mph - N/A   Clear
4:51 AM 34.0 °F 26.6 °F 19.9 °F 56% 30.38 in 10.0 mi NNE 9.2 mph - N/A   Clear
5:51 AM 32.0 °F 25.6 °F 19.9 °F 61% 30.39 in 10.0 mi NE 6.9 mph - N/A   Scattered Clouds
6:51 AM 35.1 °F 29.3 °F 21.0 °F 57% 30.38 in 10.0 mi NNE 6.9 mph - N/A   Mostly Cloudy
7:51 AM 37.9 °F 29.6 °F 21.9 °F 53% 30.40 in 10.0 mi ENE 13.8 mph - N/A   Overcast
8:51 AM 39.9 °F 32.9 °F 21.9 °F 49% 30.40 in 10.0 mi NE 11.5 mph - N/A   Overcast
9:51 AM 41.0 °F 33.5 °F 21.9 °F 47% 30.39 in 10.0 mi East 13.8 mph - N/A   Mostly Cloudy
10:51 AM 43.0 °F 36.0 °F 21.0 °F 42% 30.38 in 10.0 mi East 13.8 mph - N/A   Mostly Cloudy
11:51 AM 45.0 °F 37.9 °F 21.9 °F 40% 30.34 in 10.0 mi East 16.1 mph 21.9 mph N/A   Mostly Cloudy
12:51 PM 46.0 °F 39.3 °F 21.9 °F 39% 30.31 in 10.0 mi ENE 16.1 mph - N/A   Mostly Cloudy
1:51 PM 46.9 °F - 21.9 °F 37% 30.27 in 10.0 mi ENE 15.0 mph - N/A   Mostly Cloudy
2:51 PM 46.0 °F 40.2 °F 21.9 °F 39% 30.24 in 10.0 mi ENE 12.7 mph - N/A   Mostly Cloudy
3:51 PM 46.0 °F 39.6 °F 21.9 °F 39% 30.23 in 10.0 mi ENE 15.0 mph - N/A   Mostly Cloudy
4:51 PM 44.1 °F 37.1 °F 21.9 °F 42% 30.23 in 10.0 mi ENE 15.0 mph - N/A   Mostly Cloudy
5:51 PM 42.1 °F 33.6 °F 23.0 °F 47% 30.25 in 10.0 mi ENE 18.4 mph 24.2 mph N/A   Mostly Cloudy
6:51 PM 41.0 °F 32.2 °F 23.0 °F 49% 30.22 in 10.0 mi ENE 18.4 mph 25.3 mph N/A   Overcast
7:51 PM 39.9 °F 31.1 °F 24.1 °F 53% 30.22 in 10.0 mi East 17.3 mph - N/A   Overcast
8:51 PM 39.9 °F 32.5 °F 25.0 °F 55% 30.23 in 10.0 mi East 12.7 mph - N/A   Overcast
9:51 PM 39.0 °F 32.8 °F 26.1 °F 60% 30.23 in 10.0 mi East 9.2 mph - N/A   Overcast
10:51 PM 39.0 °F 31.8 °F 26.1 °F 60% 30.21 in 10.0 mi ESE 11.5 mph - N/A   Overcast
11:51 PM 37.9 °F 32.7 °F 27.0 °F 65% 30.19 in 10.0 mi East 6.9 mph - N/A   Overcast